Weather History for Salt Lake City, UT

Change the Weather History Date:

Sunday, July 14, 2013

  Actual Average Record
Temperature  
Mean Temperature 82 °F 79 °F  
Max Temperature 97 °F 93 °F 104 °F (2007)
Min Temperature 66 °F 65 °F 49 °F (1932)
Degree Days  
Heating Degree Days 0 0  
Month to date heating degree days 0 0  
Since 1 June heating degree days 4 46  
Since 1 July heating degree days 0 0  
Cooling Degree Days 17 14  
Month to date cooling degree days 263 174  
Year to date cooling degree days 656 411  
Since 1 June cooling degree days 586 361  
Growing Degree Days 32 (Base 50)    
Moisture  
Dew Point 50 °F    
Average Humidity 45    
Maximum Humidity 73    
Minimum Humidity 17    
Precipitation  
Precipitation 0.00 in 0.02 in 0.61 in (1905)
Month to date precipitation 0.92 0.23  
Year to date precipitation 7.04 9.44  
Snow  
Snow 0.00 in 0.00 in - ()
Month to date snowfall 0.0 0.0  
Since 1 July snowfall 0.0 0.0  
Snow Depth 0.00 in    
Sea Level Pressure  
Sea Level Pressure 29.90 in    
Wind  
Wind Speed 5 mph (NE)    
Max Wind Speed 13 mph    
Max Gust Speed 16 mph    
Visibility 10 miles    
Events      
T = Trace of Precipitation, MM = Missing Value Source: NWS Daily Summary

Daily Weather History Graph

Daily Weather History Graph

Search for Another Location

Airport:

Trip Planner

Search our weather history database for the weather conditions in past years. The results will help you decide how hot, cold, wet, or windy it might be!

Date:

Astronomy

Jul. 14, 2013 Rise Set
Actual Time 6:08 AM MDT 8:58 PM MDT
Civil Twilight 5:36 AM MDT 9:30 PM MDT
Nautical Twilight 4:55 AM MDT 10:11 PM MDT
Astronomical Twilight 4:08 AM MDT 10:58 PM MDT
Moon 12:32 PM MDT (7/14) No Moon Set
Length of Visible Light 15h 54m
Length of Day
14h 49m
Waxing Crescent, 35% of the Moon is Illuminated
Jul 14
Waxing Crescent
Jul 15
First Quarter
Jul 22
Full
Jul 29
Last Quarter
Aug 6
New

Hourly Weather History & Observations

Time (MDT) Temp. Heat Index Dew Point Humidity Pressure Visibility Wind Dir Wind Speed Gust Speed Precip Events Conditions
12:53 AM 73.9 °F - 52.0 °F 46% 29.90 in 10.0 mi SE 8.1 mph - N/A   Scattered Clouds
1:53 AM 73.0 °F - 53.1 °F 49% 29.91 in 10.0 mi SE 9.2 mph - N/A   Mostly Cloudy
2:53 AM 70.0 °F - 55.0 °F 59% 29.92 in 10.0 mi Calm Calm - N/A   Scattered Clouds
3:53 AM 69.1 °F - 54.0 °F 58% 29.92 in 10.0 mi Calm Calm - N/A   Scattered Clouds
4:53 AM 68.0 °F - 55.0 °F 63% 29.93 in 10.0 mi Calm Calm - N/A   Partly Cloudy
5:53 AM 66.0 °F - 55.0 °F 68% 29.96 in 10.0 mi SE 6.9 mph - N/A   Scattered Clouds
6:53 AM 68.0 °F - 54.0 °F 61% 29.97 in 10.0 mi SE 5.8 mph - N/A   Partly Cloudy
7:53 AM 72.0 °F - 54.0 °F 53% 29.98 in 10.0 mi SE 6.9 mph - N/A   Partly Cloudy
8:53 AM 75.9 °F - 54.0 °F 46% 29.98 in 10.0 mi South 8.1 mph - N/A   Partly Cloudy
9:53 AM 80.1 °F 79.9 °F 53.1 °F 39% 29.97 in 10.0 mi Variable 4.6 mph - N/A   Partly Cloudy
10:53 AM 84.0 °F - 52.0 °F 33% 29.96 in 10.0 mi NE 4.6 mph - N/A   Scattered Clouds
11:53 AM 88.0 °F - 52.0 °F 29% 29.94 in 10.0 mi North 5.8 mph - N/A   Scattered Clouds
12:53 PM 90.0 °F - 50.0 °F 25% 29.93 in 10.0 mi Calm Calm - N/A   Scattered Clouds
1:53 PM 93.0 °F - 50.0 °F 23% 29.90 in 10.0 mi NNW 9.2 mph - N/A   Scattered Clouds
2:53 PM 93.9 °F - 46.9 °F 20% 29.88 in 10.0 mi NW 5.8 mph - N/A   Scattered Clouds
3:53 PM 95.0 °F - 46.9 °F 19% 29.87 in 10.0 mi Variable 3.5 mph - N/A   Scattered Clouds
4:53 PM 97.0 °F - 46.0 °F 18% 29.84 in 10.0 mi North 10.4 mph 16.1 mph N/A   Scattered Clouds
5:53 PM 96.1 °F - 39.9 °F 14% 29.83 in 10.0 mi NNW 9.2 mph - N/A   Scattered Clouds
6:53 PM 95.0 °F - 41.0 °F 15% 29.81 in 10.0 mi NNW 9.2 mph - N/A   Scattered Clouds
7:53 PM 93.0 °F - 39.0 °F 15% 29.81 in 10.0 mi NNW 11.5 mph 17.3 mph N/A   Scattered Clouds
8:53 PM 86.0 °F 84.2 °F 54.0 °F 33% 29.82 in 10.0 mi North 9.2 mph - N/A   Scattered Clouds
9:53 PM 86.0 °F - 52.0 °F 31% 29.82 in 10.0 mi NW 4.6 mph - N/A   Mostly Cloudy
10:53 PM 82.0 °F 81.3 °F 54.0 °F 38% 29.83 in 10.0 mi South 3.5 mph - N/A   Mostly Cloudy
11:53 PM 84.9 °F - 43.0 °F 23% 29.82 in 10.0 mi ESE 12.7 mph - N/A   Scattered Clouds